Regional Weather Roundup
Issued by NWS

Home | Current Version | Previous Version | Graphics & Text | Print | Product List | Glossary On
Versions: 1 2 3 4 5 6 7 8 9 10 11 12 13 14 15 16 17 18 19 20 21 22 23 24 25 26 27 28 29 30 31 32 33 34 35 36 37 38 39 40 41 42 43 44 45 46 47 48 49 50
000
ASUS45 KTFX 021604
RWRMT
MONTANA HOURLY WEATHER ROUNDUP
NATIONAL WEATHER SERVICE GREAT FALLS MT
1004 AM MDT THU OCT 2 2014

NOTE: "FAIR" INDICATES FEW OR NO CLOUDS BELOW 12000 FEET WITH NO
SIGNIFICANT WEATHER AND/OR OBSTRUCTIONS TO VISIBILITY.

* THESE STATIONS ARE NOT UNDER NWS QUALITY CONTROL. THEY DO NOT
   REPORT WEATHER SUCH AS PRECIPITATION OR FOG.

MTZ001>007-043-021700-
WEST OF THE DIVIDE
CITY           SKY/WX    TMP DP  RH WIND       PRES   REMARKS
KALISPELL      PTCLDY    46  28  50 NE17      30.15R
MISSOULA       PTCLDY    50  37  61 N8        30.17R
BUTTE          PTSUNNY   45  28  51 NW7       30.13R
MULLAN PASS    CLOUDY    36  30  79 NW3       30.18R
* ESSEX        N/A       34  31  89 S3         N/A
* LINCOLN      N/A       37  28  70 NE14G21    N/A   WCI  28
* LOOKOUT PASS N/A       40  34  79 VRB5       N/A   WCI  36
* POLSON       N/A       48  35  61 NW2        N/A
* RONAN APT    PTSUNNY   50  37  61 N/A        N/A
* SEELEY LAKE  N/A       44  34  68 NW4G13     N/A
* THOMP F APT  PTCLDY    36  30  79 N/A        N/A
* YAAK HILL    N/A       43  37  79 W1         N/A
$$

MTZ008-052>055-021700-
SOUTHWEST MONTANA
CITY           SKY/WX    TMP DP  RH WIND       PRES   REMARKS
BOZEMAN        CLOUDY    50  30  46 W8        30.10R
DILLON         SUNNY     46  28  50 SW17      30.12R
W YELLOWSTONE  CLOUDY    37  28  70 SW23G31   30.18S WCI  26
* THREE FORKS  PTSUNNY   43  25  49 N/A        N/A
* BOULDER HILL N/A       35  25  67 N11        N/A   WCI  27
* MONIDA PASS  N/A       36  31  82 SE15       N/A   WCI  27
* RAYNOLDS PAS N/A       36  20  52 SE19G26    N/A   WCI  25
* WHITEHALL    N/A       45  32  60 W3G11      N/A
* WISE RIVER   N/A       44  26  49 NW12G21    N/A
$$

MTZ009>010-012-014-046-048-049-054-021700-
EAST SLOPES AND CENTRAL MONTANA
CITY           SKY/WX    TMP DP  RH WIND       PRES   REMARKS
CUT BANK       CLOUDY    32  27  82 N23       30.21R WCI  19
GREAT FALLS    LGT SNOW  32  30  92 N13G24    30.21R VSB 2 1/2 WCI  22
HELENA         CLOUDY    39  28  65 N13G18    30.17R WCI  31
MALMSTROM AFB  LGT SNOW  34  34 100 NW12      30.23R WCI  25
* CONRAD       CLOUDY    34  34 100 NW10G17    N/A   WCI  26
* DEARBORN     N/A       35  34  96 N/A        N/A
* EAST GLACIER N/A       30  25  82 E6         N/A   WCI  24
* MONARCH      N/A       28  26  92 NW16       N/A   WCI  16
* PENDROY      N/A       31  30  96 N17G24     N/A   WCI  20
* ROGERS PASS  N/A       28  26  92 S4G11      N/A
* SAINT MARY   N/A       30  29  96 NE3        N/A
* SWEET GRASS  N/A       31  31 100 W19G25     N/A   WCI  19
$$

MTZ011-013-016-021-035-040-045-047-050-051-021700-
NORTH CENTRAL MONTANA
CITY           SKY/WX    TMP DP  RH WIND       PRES   REMARKS
HAVRE          LGT SNOW  36  32  85 N13       30.15R WCI  27
LEWISTOWN      LGT SNOW  34  32  92 NW15G21   30.11R VSB 2    WCI  24
* CHESTER      N/A       35  29  79 NW16G26    N/A   WCI  25
* DENTON       N/A       33  32  96 NW17G24    N/A   WCI  22
* JUDITH GAP   N/A       32  31  96 N22G27     N/A   WCI  19
* LOMA         N/A       35  34  96 W12        N/A   WCI  27
$$

MTZ017>020-022>027-061-062-021700-
NORTHEAST MONTANA
CITY           SKY/WX    TMP DP  RH WIND       PRES   REMARKS
GLASGOW        CLOUDY    41  32  70 NW25G35   29.99R
GLENDIVE       CLOUDY    45  37  74 NW26G33   29.94R
JORDAN         CLOUDY    43  36  76 NW16      30.01R
SIDNEY         CLOUDY    45  39  80 W20G29    29.90R
WOLF POINT     CLOUDY    45  36  71 NW23G30   29.96R
* BEAVER HILL  N/A       49  36  61 W24G30     N/A
* CIRCLE       N/A       43  38  83 NW14       N/A
* LINDSAY DVD  N/A       41  36  82 NW20G29    N/A
* NAVAJO       N/A       41  35  79 NW22G30    N/A
* SACO         N/A       40  34  79 NW21G30    N/A   WCI  30
$$

MTZ028>042-056>058-021700-
SOUTHCENTRAL AND SOUTHEAST MONTANA
CITY           SKY/WX    TMP DP  RH WIND       PRES   REMARKS
BAKER          SUNNY     52  36  55 W18G24    29.93R
BILLINGS       PTSUNNY   48  36  63 SW14      30.00R
LIVINGSTON     CLOUDY    50  27  41 W20       30.05R
MILES CITY     PTCLDY    52  32  47 NW18G24   29.98R
* LAUREL APT   PTCLDY    45  34  65 SW8        N/A
* ROUNDUP APT  PTSUNNY   45  32  60 N13G24     N/A
* ALZADA       N/A       50  39  66 SW9G15     N/A
* HYSHAM       N/A       50  27  41 W10G15     N/A
* LAME DEER    N/A       47  29  50 W15G20     N/A
* REED POINT   N/A       49  31  50 W6         N/A
* ROSCOE HILL  N/A       48  20  33 NE7        N/A
$$

REGIONAL REPORTS...DAKOTAS
CITY           SKY/WX    TMP DP  RH WIND       PRES   REMARKS
WILLISTON      PTSUNNY   46  39  77 NW12      29.86R
DICKINSON      PTCLDY    52  37  57 W21G28    29.85S
BEACH          N/A       48  37  66 W21G32    29.91R
CROSBY         PTSUNNY   45  43  93 NW25G31   29.82R
TIOGA          CLOUDY    48  45  89 W14G26    29.84R
WATFORD CITY   SUNNY     50  39  66 W21G29    29.83R
BISMARCK       PTSUNNY   55  45  69 SW6       29.86F
GRAND FORKS    PTCLDY    57  48  72 W6        29.80F
FARGO          CLOUDY    55  48  77 W7        29.84S
BUFFALO SD     PTSUNNY   54  37  53 W18       29.88S
RAPID CITY     SUNNY     55  41  59 SW3       29.97F
$$

REGIONAL REPORTS...WYOMING/IDAHO/WASHINGTON
CITY           SKY/WX    TMP DP  RH WIND       PRES   REMARKS
GILLETTE       SUNNY     48  36  63 W8        30.03R
SHERIDAN       PTCLDY    50  34  54 CALM      30.03R
CODY           PTCLDY    52  28  40 NW12      30.04S
YELLOWSTONE LA PTCLDY    34  27  76 VRB7      30.20R WCI  28
SALMON         PTCLDY    39  32  76 CALM      30.20S
MULLAN PASS    CLOUDY    36  30  79 NW3       30.18S
SAND POINT     SUNNY     46  37  71 CALM      30.20R
SPOKANE        SUNNY     54  30  40 N9        30.22R
$$

REGIONAL REPORTS...SASKATCHEWAN
CITY           SKY/WX    TMP DP  RH WIND       PRES   REMARKS
MOOSE JAW      CLOUDY   N/A N/A N/A NW23G35    N/A

$$




USA.gov is the U.S. government's official web portal to all federal, state and local government web resources and services.